Orbital Elements at Epoch 2459200.5 (2020-Dec-17.0) TDB
Reference: JPL 13 (heliocentric ecliptic J2000)
Element | Value | Uncertainty (1-sigma) | Units |
e | .1392137436781096 | 4.4601e-08 | |
a | 2.339656662367887 | 1.3646e-08 | au |
q | 2.013944299478223 | 1.0241e-07 | au |
i | 2.570531125970477 | 5.0311e-06 | deg |
node | 199.9276883380714 | 9.568e-05 | deg |
peri | 344.1138508142766 | 9.6971e-05 | deg |
M | 132.4396271466458 | 1.7251e-05 | deg |
tp | 2458719.614068812066 (2019-Aug-24.11406881) | 6.0873e-05 | TDB |
period | 1307.153598642857 3.58 | 1.1436e-05 3.131e-08 | d yr |
n | .2754075728925564 | 2.4095e-09 | deg/d |
Q | 2.665369025257552 | 1.5546e-08 | au |
|
| | Orbit Determination Parameters
Additional Information
|